Regional Weather Roundup
Issued by NWS

Home | Current Version | Previous Version | Graphics & Text | Print | Product List | Glossary On
Versions: 1 2 3 4 5 6 7 8 9 10 11 12 13 14 15 16 17 18 19 20 21 22 23 24 25 26 27 28 29 30 31 32 33 34 35 36 37 38 39 40 41 42 43 44 45 46 47 48 49 50
000
ASUS43 KMKX 180000
RWRWI

WISCONSIN REGIONAL WEATHER ROUNDUP
NATIONAL WEATHER SERVICE MILWAUKEE/SULLIVAN WI
600 PM CST WED DEC 17 2014

NOTE: "FAIR" INDICATES FEW OR NO CLOUDS BELOW 12,000 FEET WITH NO
SIGNIFICANT WEATHER AND/OR OBSTRUCTIONS TO VISIBILITY.

WIZ001-002-006>008-014>016-023>028-180100-
NORTHWEST WISCONSIN

CITY           SKY/WX    TMP DP  RH WIND       PRES   REMARKS
SUPERIOR ARPT  PTCLDY    16  12  86 CALM      30.33S
ASHLAND        FLURRIES  23  19  85 NW6       30.31R WCI  16
6HR MIN TEMP:  22; 6HR MAX TEMP:  24; 6HR PCP: TRACE;

HAYWARD        CLOUDY    18  12  77 N3        30.28S
6HR MIN TEMP:  18; 6HR MAX TEMP:  20; 6HR PCP: TRACE;

SIREN          CLEAR     14   9  82 CALM      30.30F
CUMBERLAND     CLEAR     16  10  79 N5        30.27S WCI   9
RICE LAKE      CLEAR     17  11  74 NW5       30.29F WCI  10
CHETEK         CLEAR     16  10  77 CALM      30.29S
LADYSMITH      CLOUDY    20  14  76 N9        30.27S WCI   9
EAU CLAIRE     NOT AVBL
MENOMONIE      PTCLDY    17  10  74 NW5       30.30S WCI  10
NEW RICHMOND   PTCLDY    15  11  83 N3        30.30F
OSCEOLA        PTCLDY    17  11  77 CALM      30.33F
$$

WIZ003>005-009-010-017-018-180100-
NORTH CENTRAL WISCONSIN

CITY           SKY/WX    TMP DP  RH WIND       PRES   REMARKS
MANITOWISH WTR CLOUDY    21  19  95 N7        30.20S WCI  12
ARBOR VITAE    CLOUDY    22  19  89 NW5       30.20R WCI  15
WOODRUFF       CLOUDY    22  19  89 NW5       30.20R WCI  15
RHINELANDER    CLOUDY    20  17  88 NW6       30.19R WCI  12
6HR MIN TEMP:  19; 6HR MAX TEMP:  20; 6HR PCP: TRACE;

EAGLE RIVER    CLOUDY    21  17  85 N12G17    30.18R WCI   9
LAND O LAKES   CLOUDY    22  19  91 NW8       30.19R WCI  12
PHILLIPS       CLOUDY    19  15  85 NW5       30.22S WCI  12
TOMAHAWK       CLOUDY    20  16  83 NW6       30.21S WCI  12
MEDFORD        CLOUDY    18  12  78 NW7       30.21S WCI   9
MERRILL        CLOUDY    21  15  78 NW6       30.21S WCI  14
$$

WIZ029-030-035-036-043>047-180100-
CENTRAL WISCONSIN

CITY           SKY/WX    TMP DP  RH WIND       PRES   REMARKS
WAUSAU         CLOUDY    22  14  71 NW8       30.20S WCI  12
6HR MIN TEMP:  20; 6HR MAX TEMP:  22;

MOSINEE        NOT AVBL
MARSHFIELD     CLOUDY    18  11  74 NW9       30.23S WCI   7
6HR MIN TEMP:  17; 6HR MAX TEMP:  21; 6HR PCP: TRACE;

STEVENS POINT  MOCLDY    17  10  75 W6        30.24R WCI   9
WAUPACA        PTCLDY    23  13  67 W7        30.24R WCI  15
WAUTOMA        NOT AVBL
WISC RAPIDS    MOCLDY    18  10  71 W6        30.26S WCI  10
6HR MIN TEMP:  17; 6HR MAX TEMP:  22;

CAMP DOUGLAS   NOT AVBL
$$

WIZ011>013-019>022-031-037>040-048>050-180100-
NORTHEAST WISCONSIN

CITY           SKY/WX    TMP DP  RH WIND       PRES   REMARKS
ANTIGO         CLOUDY    21  17  84 NW9       30.18R WCI  10
SHAWANO        CLOUDY    27  18  67 W6        30.21S WCI  21
OCONTO         CLOUDY    26  19  72 NW6       30.19R WCI  20
STURGEON BAY   CLOUDY    28  18  64 NW14G22   30.18R WCI  17
6HR MIN TEMP:  23; 6HR MAX TEMP:  28;

GREEN BAY      CLOUDY    26  17  68 W10       30.21S WCI  16
6HR MIN TEMP:  24; 6HR MAX TEMP:  27; 6HR PCP: TRACE;

MANITOWOC      NOT AVBL
APPLETON       MOCLDY    21  14  73 W10       30.22R WCI  10
CLINTONVILLE   CLOUDY    25  14  63 W10       30.22R WCI  15
OSHKOSH        CLEAR     22  14  71 NW8       30.23R WCI  12
6HR MIN TEMP:  22; 6HR MAX TEMP:  26; 6HR PCP: TRACE;

$$

WIZ032>034-041-042-053>061-180100-
SOUTHWEST WISCONSIN

CITY           SKY/WX    TMP DP  RH WIND       PRES   REMARKS
LA CROSSE      CLOUDY    21  12  68 N9        30.31R WCI  11
6HR MIN TEMP:  21; 6HR MAX TEMP:  25;

SPARTA         CLOUDY    19  12  74 NW5       30.30R WCI  12
VIROQUA        CLOUDY    19  15  82 NW7       30.25R WCI  10
BOSCOBEL       MOCLDY    19  13  77 CALM      30.29R
6HR MIN TEMP:  19; 6HR MAX TEMP:  27;

PRAIRIE DU CHI CLEAR     22  15  72 W6        30.29S WCI  15
PLATTEVILLE    CLEAR     21  16  81 CALM      30.26S
$$

WIZ056-057-062-063-064-067-068-180100-
SOUTH CENTRAL WISCONSIN

CITY           SKY/WX    TMP DP  RH WIND       PRES   REMARKS
REEDSBURG      CLOUDY    20  14  75 NW6       30.26R WCI  13
BARABOO/DELLS  CLOUDY    20  14  76 NW8       30.25R WCI  11
LONE ROCK      NOT AVBL
MINERAL POINT  PTCLDY    21  16  79 CALM      30.24S
MADISON        CLOUDY    22  14  71 NW8       30.25R WCI  12
6HR MIN TEMP:  21; 6HR MAX TEMP:  25; 6HR PCP: TRACE;

MIDDLETON      CLOUDY    24  16  73 W8        30.25R WCI  15
WATERTOWN      CLOUDY    22  15  76 NW9       30.24R WCI  11
MONROE         CLOUDY    23  18  80 CALM      30.24S
JANESVILLE     CLOUDY    25  18  74 W8        30.25S WCI  16
$$

WIZ051-052-058>065-066-070>072-180100-
SOUTHEAST WISCONSIN

CITY           SKY/WX    TMP DP  RH WIND       PRES   REMARKS
MILWAUKEE      PTCLDY    24  13  62 NW13      30.23R WCI  12
6HR MIN TEMP:  24; 6HR MAX TEMP:  27;

WAUKESHA       MOCLDY    19  12  73 NW14      30.24R WCI   6
MILWAUKEE/TIMM PTCLDY    21  14  73 NW12      30.24R WCI   9
RACINE         PTCLDY    24  15  68 NW9       30.25R WCI  14
6HR MIN TEMP:  24; 6HR MAX TEMP:  27;

BURLINGTON     PTCLDY    21  16  80 NW8       30.24R WCI  11
KENOSHA        PTCLDY    24  16  71 NW7       30.23S WCI  16
6HR MIN TEMP:  24; 6HR MAX TEMP:  27;

FOND DU LAC    CLEAR     21  13  71 NW8       30.24R WCI  11
6HR MIN TEMP:  21; 6HR MAX TEMP:  25; 6HR PCP: TRACE;

SHEBOYGAN      MOCLDY    23  15  71 W13       30.22R WCI  11
6HR MIN TEMP:  23; 6HR MAX TEMP:  26;

WEST BEND      PTCLDY    23  16  74 NW10G16   30.22R WCI  12
JUNEAU         PTCLDY    20  14  76 NW8       30.24R WCI  11
$$

LSZ147-162-180100-
LAKE SUPERIOR

STATION/POSITION TIME  TEMP    WIND        PRES    WAVE
                       AIR SEA DIR/SP/G            HT/PER
                 (UTC) (F)     (DEG/KT/KT) (MB)    (FT/S)
DEVILS ISLAND    2300   26      20/  6/  8 1027.3R
PORT WING        2300   22     200/  5/  7 1026.8R
SAXON HARBOR     2300   26     350/ 10/ 12 1025.4R
$$

LMZ867-665-643>646-180100-
LAKE MICHIGAN

STATION/POSITION TIME  TEMP    WIND        PRES    WAVE
                       AIR SEA DIR/SP/G            HT/PER
                 (UTC) (F)     (DEG/KT/KT) (MB)    (FT/S)
CHAMBERS ISLAND  2300   29     300/  9/ 16 1021.0R
NORTHPORT PIER   2300   30     330/ 18/ 26 1020.3R
SISTER BAY       2313          340/ 27/ 31   N/A
ALGOMA LAKESHORE 2314          330/ 10/ 15   N/A
KEWAUNEE LAKESHO 2300   26     290/  8/ 13 1020.8R
SHEBOYGAN LAKESH 2300   24 35  290/ 14/ 17 1023.8R
PORT WASHINGTON  2340   24     310/  8/ 11 1024.4R
MILWAUKEE LAKESH 2300   26     300/  6/  8   N/A
KENOSHA   LAKESH 2300   26     310/ 10/ 13 1023.7R
$$

TC  - TEMPERATURE IN CELSIUS
VSB - VISIBILITY IN STATUTE MILES
WCI - WIND CHILL INDEX
HX  - HEAT INDEX



USA.gov is the U.S. government's official web portal to all federal, state and local government web resources and services.